Weather in Gozhan

Russia / Perm Krai     56°31′26″N   55°12′02″E
temp.,
°C
wind,
m/s
gust,
m/s
humid.,
%
clouds,
%
prec.,
mm/h
press.,
hPa
HPBL,
m
3 march, wed
wed323:00−5s51296100 1.9 997457
02:00−2wsw51096100 0.9 996367
05:00−3wsw599599 1.2 997412
08:00−5wsw369795 0.3 997182
11:00−4w359695 0.4 998278
14:00−2wsw459596 0.2 998494
17:00−2sw579698 0.5 998490
20:00−4sw4897100 0.4 998264
4 march, thu
thu423:00−4sw5996100 1.1 999354
02:00−7wnw61192100 0.6 998464
05:00−13w499796 0.7 999157
08:00−14wsw479985 0.0 1000103
11:00−9sw599493 0.2 999385
14:00−7sw6993100 0.4 998606
17:00−5ssw61093100 0.6 996747
20:00−4ssw71296100 1.8 994745
5 march, fri
fri523:00−3sw61295100 4.1 993638
02:00−6wsw7139299 0.2 993533
05:00−6wsw51093100 0.3 997444
08:00−8wsw499596 0.1 998237
11:00−7wsw359698 0.1 1000257
14:00−4sw2391100 0.1 1000412
17:00−4sw2292100 0.2 1001289
20:00−6nnw3596100 0.2 1000139
6 march, sat
sat623:00−10nnw5992100 0.3 1003266
02:00−18wnw469613 0.0 100797
05:00−19wnw349834 0.0 101041
08:00−20w3410044 0.0 101236
11:00−16w249353 0.0 1012229
14:00−11wsw238492 0.0 1012479
17:00−10ssw349096 0.0 1010340
20:00−17ssw339894 0.0 100925
7 march, sun
sun723:00−18ssw239980 0.1 101023
02:00−16sw349895 0.1 100979
05:00−16wsw349794 0.3 101088
08:00−19wnw2399100 0.1 101026
11:00−16wsw239062 0.1 1011246
14:00−13sw468941 0.0 1012520
17:00−13ssw579170 0.1 1011517
20:00−17ssw469793 0.0 1011101